Tracking 19219 objects as of 19-Jul-2018
HD Live streaming from Space Station
objects crossing your sky now

FENGYUN 1C DEB

Track FENGYUN 1C DEB now!
10-day predictions


NORAD ID: 31971
Int'l Code: 1999-025CNY
Perigee: 790.1 km
Apogee: 811.2 km
Inclination: 102.3 °
Period: 100.7 minutes
Semi major axis: 7171 km
RCS: 0.0103 m2 (small)
Launch date: May 10, 1999
Source: People's Republic of China (PRC)
Launch site: Taiyaun Space Center, China (TSC)

Note: This is SATELLITE DEBRIS
aabbcc
Your satellite tracking list
Your tracking list is empty




NASA's NSSDC Master Catalog

Two Line Element Set (TLE):
1 31971U 99025CNY 18199.32715542 +.00001112 +00000-0 +46507-3 0  9993
2 31971 102.2749 023.8787 0014732 040.1460 083.9350 14.29476405264872
Source of the keplerian elements: AFSPC